Terminal Aerodrome Forecast
Issued by NWS Paducah, KY

Home | Current Version | Previous Version | Text Only | Print | Product List | Glossary On
Versions: 1 2 3 4 5 6 7 8 9 10 11 12 13 14 15 16 17 18 19 20 21 22 23 24
000
FTUS43 KPAH 011720
TAFEVV
TAF
KEVV 011720Z 0118/0218 21008KT P6SM VCSH SCT010 BKN020
      TEMPO 0118/0122 BKN010
     FM020100 27002KT P6SM OVC040
     FM020900 00000KT 2SM BR BKN050
     FM021500 29004KT P6SM BKN015=

USA.gov is the U.S. government's official web portal to all federal, state and local government web resources and services.